Location: Rounton
(54.4000°N, 1.3500°W)
Time: 22:23:25
(UTC+00:00)

Vanguard 1 - Pass Details

Date: 08 December 2021
Orbit: 652 x 3830 km, 34.2° (Epoch: 16 January)

Event Time Altitude Azimuth Distance (km) Brightness Sun altitude
Rises 21:31:00 0° 204° (SSW) 6,548 14.2 -48.2°
Enters shadow 21:35:27 - 194° (SSW) 6,005 13.9 -48.8°
Reaches altitude 10° 21:35:57 10° 193° (SSW) 5,952 - -48.8°
Maximum altitude 21:51:02 28° 144° (SE) 5,383 - -50.5°
Drops below altitude 10° 22:08:13 10° 97° (E) 6,849 - -52.4°
Sets 22:14:26 0° 87° (E) 7,672 - -53.0°
